Location: Valencia
(39.4670°N, 0.3670°W)
Time: 18:17:23
(UTC+02:00)

ISS - Pass Details

Date: 08 August 2017
Orbit: 401 x 408 km, 51.6° (Epoch: 19 August)

Event Time Altitude Azimuth Distance (km) Brightness Sun altitude
Rises 22:14:52 0° 314° (NW) 2,316 1.9 -12.6°
Reaches altitude 10° 22:17:06 10° 325° (NW) 1,454 0.2 -13.0°
Maximum altitude 22:20:02 30° 29° (NNE) 748 -2.5 -13.5°
Enters shadow 22:21:45 18° 79° (E) 1,047 -2.1 -13.7°
